Weather Roundup
Issued by NWS Chicago, IL

Current Version | Previous Version | Text Only | Print | Product List | Glossary On
Versions: 1 2 3 4 5 6 7 8 9 10 11 12 13 14 15 16 17 18 19 20 21 22 23 24 25 26 27 28 29 30 31 32 33 34 35 36 37 38 39 40 41 42 43 44 45 46 47 48 49 50
000
NZUS59 KLOT 070812
HRRLOT

CHICAGO AREA WEATHER ROUNDUP
NATIONAL WEATHER SERVICE CHICAGO/ROMEOVILLE IL
200 AM CST WED DEC 07 2016

NOTE: "FAIR" INDICATES FEW OR NO CLOUDS BELOW 12,000 FEET WITH NO
SIGNIFICANT WEATHER AND/OR OBSTRUCTIONS TO VISIBILITY.

* THESE STATIONS ARE NOT UNDER NWS QUALITY CONTROL. THEY ALSO MAY NOT
  REPORT WEATHER SUCH AS PRECIPITATION OR FOG.

ILZ005-006-012>014-019>023-070900-
NORTHEAST ILLINOIS

CITY           SKY/WX    TMP DP  RH WIND       PRES   REMARKS
OHARE          PTCLDY    26  18  71 W15       30.00R WCI  14
MIDWAY         MOCLDY    28  18  66 W14       30.02R WCI  17
AURORA         PTCLDY    25  18  74 W12       30.02R WCI  14
LANSING*       PTCLDY    28  21  75 W15       30.03R WCI  16
JOLIET*        PTCLDY    29  20  68 W8        30.05R WCI  21
WAUKEGAN       CLEAR     25  17  72 SW12G21   29.96R WCI  14
DUPAGE AIRPORT PTCLDY    25  17  72 W14       30.01R WCI  13
WHEELING       CLEAR     26  16  65 W12G22    30.01R WCI  16
KANKAKEE*      PTCLDY    28  21  74 W13G18    30.06R WCI  18
MORRIS*        CLOUDY    28  20  71 W14       30.04R WCI  17
LEWIS AIRPORT* PTCLDY    27  22  84 W13G21    30.03R WCI  16
NORTHERLY ISL    N/A     28  19  69 W9          N/A  WCI  19
$$

WIZ051-052-058>065-066-070>072-070900-
SOUTHEAST WISCONSIN

CITY           SKY/WX    TMP DP  RH WIND       PRES   REMARKS
MILWAUKEE      CLEAR     26  16  65 W17G24    29.91R WCI  13
KENOSHA*       CLEAR     25  17  72 W18G26    29.94R WCI  11
RACINE*        CLEAR     25  16  68 W15G25    29.95R WCI  13
BURLINGTON     CLEAR     24  17  76 W12G21    29.95R WCI  13
WAUKESHA       CLEAR     21  16  79 SW14G21   29.92R WCI   8
WEST BEND      PTCLDY    25  18  74 W8        29.88R WCI  16
$$

INZ001>003-010>013-019-020-070900-
NORTHWEST INDIANA

CITY           SKY/WX    TMP DP  RH WIND       PRES   REMARKS
GARY*          PTCLDY    30  20  66 W9G16     30.03S WCI  22
MICHIGAN CITY* NOT AVBL
RENSSELAER*    NOT AVBL
VALPARAISO     PTCLDY    28  18  66 W16       30.02S WCI  16
$$

LMZ740>746-070900-
SOUTHERN LAKE MICHIGAN

STATION/POSITION TIME  SKY/WX   TEMP WIND        PRES    VSBY
                                AIR  DIR/SP/G
                 (UTC)          (F)  (DEG/KT/KT) (MB)    (MI)
HARRISON CRIB    0740            29  270/ 24/ 30   N/A
BURNHAM HARBOR   0800            28  230/ 14/ 16   N/A
CALUMET HARBOR   0742            27  230/  9/ 14 1015.8R
BURNS HARBOR     0740            31  270/ 24/ 30 1016.9R
MICHIGAN CITY    0740            30  240/ 29/ 33   N/A
$$

ABBREVIATIONS USED IN REMARKS
   TC - TEMPERATURE IN CELSIUS
  WCI - WIND CHILL INDEX
   HX - HEAT INDEX
  VSB - VISIBILITY
$$



USA.gov is the U.S. government's official web portal to all federal, state and local government web resources and services.